Regional Weather Roundup
Issued by NWS Northern Indiana

Home | Current Version | Previous Version | Graphics & Text | Print | Product List | Glossary On
Versions: 1 2 3 4 5 6 7 8 9 10 11 12 13 14 15 16 17 18 19 20 21 22 23 24 25 26 27 28 29 30 31 32 33 34 35 36 37 38 39 40 41 42 43 44 45 46 47 48 49 50
000
ASUS43 KIWX 010110
RWRIWX

KIWX WEATHER ROUNDUP
NATIONAL WEATHER SERVICE NORTHERN INDIANA
900 PM EDT TUE JUN 30 2015

NOTE: "FAIR" INDICATES FEW OR NO CLOUDS BELOW 12,000 FEET WITH NO
SIGNIFICANT WEATHER AND/OR OBSTRUCTIONS TO VISIBILITY.

* THESE STATIONS ARE NOT UNDER NWS QUALITY CONTROL. THEY ALSO MAY NOT
  REPORT WEATHER SUCH AS PRECIPITATION OR FOG.

INZ001>027-010200-
NORTHERN INDIANA

CITY           SKY/WX    TMP DP  RH WIND       PRES   REMARKS
GARY*          CLOUDY   N/A N/A N/A N9        29.88R FOG
VALPARAISO     CLEAR     65  58  78 N6        29.87R
SOUTH BEND     CLEAR     65  59  81 NW8       29.87R
ELKHART*       CLEAR     64  59  82 NW6       29.85R
GOSHEN         CLEAR     67  58  72 NW14      29.84R
ANGOLA*        MOCLDY    70  61  73 NW7       29.81R
FORT WAYNE     CLEAR     70  59  68 NW8       29.83R
PERU/GRISSOM   PTCLDY    71  62  73 N8        29.84R

$$
INZ028>050-010200-
CENTRAL INDIANA

CITY           SKY/WX    TMP DP  RH WIND       PRES   REMARKS
LAFAYETTE      PTCLDY    73  63  70 N8        29.83R
KOKOMO*        MOCLDY    72  63  73 N9        29.84R
MUNCIE*        CLEAR     73  62  68 NW7       29.82R
INDIANAPOLIS   PTCLDY    75  63  66 NW9       29.82R

$$
MIZ043>046-050>051-056>058-064>065-071>073-077>080-010200-
SOUTHWEST LOWER MICHIGAN

CITY           SKY/WX    TMP DP  RH WIND       PRES   REMARKS
BATTLE CREEK   MOCLDY    66  59  78 W9        29.83R
BENTON HARBOR  CLOUDY    61  58  90 NW5       29.86R
COLDWATER*     CLOUDY    65  57  74 NW15      29.82R
HILLSDALE*     MOCLDY    67  62  83 W8        29.81R
HOLLAND        CLEAR     65  57  75 NW12      29.84R
GRAND RAPIDS   MOCLDY    68  62  81 NW12      29.81R
KALAMAZOO      CLOUDY    65  58  78 W9        29.83R
STURGIS*         N/A     64  59  82 NW12G17   29.84R
THREE RIVERS*  MOCLDY    65  59  81 NW7       29.85R

$$
OHZ001>008-015>018-024>025-010200-
NORTHWEST OHIO

CITY           SKY/WX    TMP DP  RH WIND       PRES   REMARKS
DEFIANCE       FAIR      71  59  65 W6        29.80R
FINDLAY        FAIR      71  64  78 SW7       29.77S
TOLEDO EXPRESS FAIR      71  63  75 NW9G22    29.77R
TOLEDO METCALF TSTM      67  61  81 CALM      29.78R
LIMA           FAIR      67  64  90 W5        29.80R

$$
AND FOR LAKE MICHIGAN COASTAL AND OPEN LAKE BUOY OBSERVATIONS

STATION/POSITION TEMP    WIND        PRES    VSBY  WAVE
                 AIR SEA DIR/SP/G                  HT/PER
                 (F)     (DEG/KT/KT) (MB)    (MI)  (FT/S)
CALUMET HARBOR    59     340/  9/ 11   N/A
MICHIGAN CITY     59      10/ 10/ 12   N/A
BURNS HARBOR      61      20/  9/ 10 1011.9R
SAINT JOSEPH      61     340/ 11/ 14   N/A
4 MI NW BRIDGMAN  62 64                N/A           2/ 3
MICHIGAN CITY     60 65   40/  8/ 10   N/A           2/ 3

$$
&&


USA.gov is the U.S. government's official web portal to all federal, state and local government web resources and services.